sat.trackr.live / text

‹ back to catalog

MINXSS-2

NORAD 43758 · 2018-099A

PAYLOAD ACTIVE UNKNOWN

§ Identity

Operator
Country
US
Launch date
2018-12-03
Launch site
AFWTR
Launch vehicle
Mass (kg)
RCS (m²)

External: N2YO · Heavens-Above · Gunter

§ Orbital elements

Epoch: 2026-09-20T04:10:09.287040Z

Period
92.68 min
Inclination
97.4442°
Eccentricity
0.0005490
Mean motion
15.53663568 rev/d
Perigee alt
402.3 km
Apogee alt
409.8 km
Semi-major
6,784.2 km
B*
5.4110e-4
RAAN
342.6631°
Arg perigee
267.5189°
Mean anomaly
92.5436°
Rev number
42,884

§ Raw data

MINXSS-21 43758U 18099A   26263.17371860  .00034574  00000+0  54110-3 0  99922 43758  97.4442 342.6631 0005490 267.5189  92.5436 15.53663568428843

JSON: /api/v1/satellites/43758 · /tle

For live sub-satellite position, see the globe view (requires WebGL).

§ Visibility from observer

Set your observer location to see the next 7 days of passes ≥ 10°. The values pass through the URL so the page stays shareable.

No JS? Fill the form by hand. The geolocation button needs JavaScript.

§ Radio — SatNOGS DB

ModeDescriptionDownlinkUplink
GMSK Secondary 437.250 MHz
GMSK GMSK9k6 (inactive) 437.250 MHz

2 transmitters · refreshed weekly from db.satnogs.org